Wind_Speed
30 25 26 22 23 20 21 22 22 21 22 21 21 22 19 18 17 17 17 16 16 17 17 17 17 15 16 17 16 16 16 15 15 17 19 19 18 18 18 18 18 17 19 23 26
34 29 28 26 26 23 21 23 24 23 22 22 22 21 21 19 18 18 17 16 17 18 20 19 18 17 17 17 18 18 17 17 15 16 18 18 19 18 19 20 18 17 20 23 26
35 33 29 29 27 26 24 24 25 23 23 22 22 21 20 20 18 18 18 17 17 18 19 20 18 18 19 19 19 18 18 18 17 16 18 17 18 19 21 21 18 18 21 23 27
41 36 32 33 29 27 27 24 25 25 24 23 22 21 21 20 19 19 18 18 18 18 19 21 19 18 20 20 19 17 18 19 18 17 18 19 20 20 21 21 18 18 19 23 27
40 39 35 36 30 30 28 26 25 26 25 23 22 21 22 21 20 19 18 18 17 18 20 22 20 18 22 20 19 18 17 17 18 19 19 20 20 21 21 20 19 18 19 24 27
42 40 39 39 33 32 31 28 26 27 26 24 23 22 22 20 20 19 18 18 17 18 20 23 21 19 21 20 18 19 18 18 19 20 20 20 21 22 22 20 20 19 20 25 26
48 43 42 38 35 32 33 29 27 28 28 26 24 23 23 21 21 19 18 19 19 22 23 25 21 19 19 21 18 19 17 18 20 22 22 23 23 22 21 20 19 21 22 25 25
49 49 46 39 36 34 34 30 31 30 29 27 26 25 24 22 21 20 19 21 22 24 23 23 19 20 18 21 18 18 18 18 21 24 25 24 26 23 23 21 20 21 22 24 23
44 49 45 49 38 37 37 34 33 32 31 28 28 26 25 24 23 21 20 22 23 24 20 19 18 20 18 20 18 18 19 19 21 25 27 25 26 23 22 22 21 21 22 22 23
39 41 44 44 43 41 37 37 36 34 32 30 28 27 26 24 24 23 22 23 22 22 19 17 17 18 18 18 17 19 20 20 23 26 28 26 23 29 21 22 21 21 21 21 23
45 42 43 45 45 45 40 38 37 37 35 33 29 29 28 27 26 25 24 23 22 19 19 17 16 17 17 17 18 19 19 20 24 27 23 24 23 26 23 21 21 20 20 21 22
52 49 48 47 48 46 46 41 39 38 39 36 32 31 31 30 29 28 25 24 22 19 18 18 16 17 18 17 17 17 17 19 22 23 22 22 21 23 22 21 20 19 19 20 21
55 55 52 50 50 48 48 44 43 42 42 40 36 34 35 32 31 30 28 26 22 19 19 19 18 18 18 16 16 17 19 21 21 21 21 23 18 21 21 20 20 17 18 19 19
57 54 57 53 53 53 50 50 48 47 47 44 42 38 36 34 34 32 30 28 22 19 20 18 19 18 18 18 18 18 20 21 20 19 20 20 18 18 19 18 17 17 18 18 18
60 59 56 59 56 55 54 52 51 49 52 49 47 41 37 38 31 31 33 30 25 22 23 20 20 19 19 20 20 20 21 21 19 19 20 21 19 18 18 17 17 19 18 18 16
60 60 56 57 63 61 58 58 54 53 59 52 48 46 41 39 36 33 34 32 29 26 23 22 22 22 22 24 24 23 23 23 19 19 19 21 19 16 17 17 18 17 17 17 16
54 57 60 57 60 67 65 62 57 59 55 54 52 44 40 41 40 38 36 35 34 31 27 25 24 23 23 24 23 23 25 26 23 18 18 20 20 18 17 18 19 17 16 17 17
54 56 58 60 59 59 70 66 66 58 59 59 52 49 46 39 41 40 39 38 36 34 31 30 27 26 25 24 25 25 26 26 27 21 15 18 22 19 18 18 18 16 15 17 17
54 51 57 59 60 61 62 65 63 63 61 60 58 59 48 43 39 39 41 39 36 35 35 33 30 27 26 23 23 24 25 26 27 25 19 16 21 23 20 20 18 15 16 17 17
56 52 51 56 61 61 58 58 59 59 65 62 61 58 55 51 45 42 38 39 37 35 34 34 33 30 28 26 25 25 26 26 26 29 26 18 18 24 21 21 20 17 16 17 15
71 60 56 55 59 61 61 58 53 59 55 63 65 61 56 53 49 49 47 44 38 37 38 33 34 34 33 29 28 27 27 27 27 25 28 25 16 27 25 19 21 15 14 17 15
71 79 66 63 58 64 61 59 55 53 54 52 56 64 61 57 55 54 50 50 42 37 38 35 38 39 36 36 33 29 29 28 28 26 24 25 17 25 25 21 19 13 12 16 15
71 71 76 71 62 62 61 59 58 54 51 51 49 53 62 65 63 62 57 51 44 44 40 41 45 43 41 39 36 33 31 29 27 25 20 21 15 24 27 22 17 12 13 14 14
65 64 72 84 70 59 62 61 58 56 54 49 48 46 50 57 62 59 56 52 47 45 46 46 50 48 44 43 39 36 32 30 26 25 25 19 17 25 33 24 17 13 14 16 14
64 64 59 73 85 63 64 63 62 59 56 51 50 49 48 48 55 60 59 52 52 51 50 52 53 50 47 45 44 40 34 33 24 25 23 18 17 25 32 26 22 16 14 15 15
66 63 65 61 65 77 66 65 63 61 61 58 50 46 44 47 47 57 58 55 55 56 53 56 56 53 49 47 47 45 38 33 24 22 20 19 9 26 24 23 21 19 15 14 13
67 67 65 65 68 65 76 66 61 61 62 59 53 49 47 42 46 54 63 65 64 61 60 61 60 54 50 47 48 45 38 29 26 21 20 17 15 22 26 22 22 20 18 15 13
Wind_Direction
261 260 261 260 268 268 268 261 257 256 256 257 260 265 262 264 267 270 276 278 277 285 290 291 289 288 289 297 307 309 309 306 300 298 299 302 304 302 302 308 309 311 315 321 328
262 259 258 261 264 269 268 265 256 254 256 257 256 258 259 259 263 269 274 277 280 285 288 288 287 287 289 295 303 307 304 300 301 305 305 308 304 302 305 309 310 316 321 327 329
256 253 254 256 259 264 265 262 258 254 253 255 253 255 257 257 260 266 271 274 278 282 286 287 286 287 290 295 300 302 298 299 303 305 303 305 303 304 305 309 309 317 324 330 328
255 251 251 251 250 257 265 260 257 254 250 251 252 252 253 256 259 264 267 271 277 284 288 286 286 288 290 296 302 304 298 300 305 302 301 303 304 307 307 307 305 315 325 327 327
250 249 249 250 248 251 258 259 255 253 250 248 249 250 250 254 257 262 264 268 276 284 288 286 284 288 291 292 299 299 297 300 303 306 302 301 304 307 304 307 306 316 327 327 329
243 248 248 246 244 247 251 253 252 252 250 248 249 250 250 252 256 258 262 268 272 282 291 291 286 287 286 289 295 300 297 303 306 306 304 305 309 312 309 309 308 317 329 329 330
247 245 244 245 242 243 248 248 255 248 250 247 248 251 252 253 251 254 261 265 270 283 292 289 285 283 282 283 291 297 297 302 309 309 307 304 306 310 308 305 309 318 327 329 332
247 246 240 240 244 243 244 242 251 248 246 247 248 251 250 251 249 250 255 259 270 283 290 284 281 281 282 283 289 295 301 300 308 312 305 304 303 306 307 306 309 316 324 331 332
243 238 234 245 243 243 244 242 246 248 246 245 246 248 247 248 246 245 252 261 273 281 282 280 280 278 279 282 287 295 300 301 306 312 309 299 299 297 308 309 309 315 323 333 332
239 239 241 243 237 241 241 240 244 245 244 242 243 245 247 247 244 239 253 264 276 280 279 277 276 278 280 283 290 294 295 299 307 307 305 298 293 296 306 307 308 315 321 331 330
243 240 240 239 237 238 241 241 241 241 243 239 239 246 244 245 240 241 252 265 276 278 278 271 270 276 281 285 291 292 294 297 305 304 304 298 295 294 304 307 309 312 321 330 328
244 240 241 240 238 238 238 241 241 241 242 241 239 243 244 242 240 242 250 262 271 276 279 271 269 276 281 286 289 293 297 302 308 308 307 304 298 297 302 307 310 312 318 326 325
246 242 238 239 236 237 236 239 243 246 242 241 244 244 242 243 238 243 250 260 271 276 278 271 271 275 281 288 293 300 301 309 315 313 311 304 303 296 300 306 305 312 314 321 324
242 248 243 235 236 235 237 237 242 245 242 239 242 240 241 242 238 243 249 254 266 277 267 270 269 273 280 286 292 299 302 312 316 314 307 302 307 298 306 307 310 313 310 319 325
241 241 246 239 234 235 236 237 241 244 243 239 239 242 241 241 241 242 247 250 256 266 264 269 269 274 280 285 292 297 301 306 313 313 309 304 307 308 309 313 313 308 308 315 323
243 243 241 245 238 233 236 238 237 239 241 240 237 238 239 238 237 239 242 245 251 257 263 268 268 275 279 284 289 294 297 299 306 311 311 308 308 306 311 316 310 309 310 315 318
240 241 240 239 242 239 234 235 236 232 235 240 242 239 238 236 237 239 242 245 250 257 263 271 271 275 284 286 286 291 295 298 299 302 308 308 307 306 307 310 315 317 311 315 313
230 239 240 237 236 239 240 236 233 234 234 240 243 242 239 237 236 238 240 244 247 255 263 268 270 272 282 285 283 287 292 297 299 302 303 306 308 309 305 306 313 322 315 311 312
228 232 237 241 239 238 237 242 246 242 237 238 244 246 241 238 239 241 242 244 247 251 254 260 265 270 275 282 284 282 288 292 296 297 301 301 304 306 303 302 301 306 316 303 307
234 228 229 236 239 237 238 239 238 245 244 242 242 244 244 239 239 238 238 239 242 247 252 257 261 267 271 277 282 286 286 292 292 294 298 302 303 305 305 302 300 305 301 297 302
249 231 226 229 233 236 236 239 237 241 242 244 245 243 241 243 241 238 236 237 239 244 249 250 257 261 268 274 277 283 287 289 292 295 296 300 300 294 304 303 299 301 295 294 294
234 241 232 227 233 233 236 239 235 234 238 240 241 242 240 239 241 239 239 243 236 240 248 250 252 257 265 269 274 279 282 284 286 294 302 298 306 292 294 301 309 323 284 295 288
235 232 235 230 230 233 231 235 235 231 233 235 234 239 241 239 238 240 237 237 238 235 241 248 251 256 260 266 272 273 276 281 282 289 300 293 305 291 285 291 311 314 298 301 290
236 234 237 237 228 233 230 227 230 232 230 231 234 233 236 239 242 241 236 234 232 235 239 244 250 253 258 263 268 271 273 274 276 287 287 300 290 286 281 291 305 304 298 298 295
241 233 232 242 239 232 233 230 229 229 229 229 232 236 238 238 239 233 233 228 230 233 237 241 248 252 256 259 262 265 266 268 275 282 293 286 298 268 278 293 296 303 297 295 277
243 242 234 234 241 239 230 228 228 227 230 230 232 235 239 240 242 237 226 224 226 228 231 237 245 250 252 257 258 261 258 261 273 280 288 292 285 276 276 285 291 295 301 303 287
240 242 241 236 233 239 232 226 225 228 227 232 233 234 234 237 243 240 233 227 225 224 227 232 239 245 250 256 255 253 254 261 268 273 278 286 283 272 280 280 282 285 287 294 299
Height
5824 5824 5828 5827 5828 5826 5826 5826 5827 5827 5828 5829 5830 5831 5831 5832 5832 5832 5832 5832 5832 5832 5831 5831 5831 5830 5830 5830 5828 5827 5827 5826 5824 5823 5822 5820 5819 5818 5818 5817 5814 5812 5810 5808 5804
5818 5819 5821 5823 5824 5823 5822 5823 5823 5823 5824 5825 5826 5826 5828 5828 5828 5828 5829 5828 5828 5828 5828 5828 5827 5827 5827 5826 5825 5824 5824 5823 5822 5820 5818 5817 5816 5814 5814 5812 5810 5808 5806 5803 5800
5811 5813 5815 5816 5818 5820 5818 5818 5819 5819 5819 5820 5822 5823 5824 5825 5825 5825 5825 5825 5825 5824 5824 5825 5823 5824 5824 5823 5822 5820 5820 5819 5818 5816 5815 5813 5811 5810 5809 5808 5806 5804 5802 5799 5795
5804 5806 5808 5810 5810 5814 5815 5813 5815 5815 5815 5816 5817 5819 5820 5821 5823 5821 5821 5822 5822 5822 5821 5821 5820 5820 5821 5820 5819 5818 5816 5815 5814 5812 5811 5810 5809 5807 5805 5804 5801 5799 5798 5795 5791
5796 5799 5801 5804 5804 5807 5809 5810 5810 5811 5811 5811 5813 5814 5816 5818 5818 5818 5819 5819 5819 5819 5818 5818 5817 5816 5818 5816 5815 5814 5813 5811 5810 5810 5809 5807 5805 5803 5801 5799 5797 5796 5793 5790 5786
5787 5790 5794 5797 5797 5800 5803 5804 5804 5806 5807 5807 5809 5810 5811 5813 5813 5814 5815 5816 5815 5816 5814 5814 5814 5812 5813 5813 5812 5811 5810 5809 5808 5807 5805 5804 5802 5800 5798 5796 5794 5792 5789 5786 5781
5779 5781 5785 5789 5789 5792 5797 5799 5798 5800 5803 5803 5804 5806 5808 5809 5809 5810 5811 5812 5812 5812 5810 5810 5809 5808 5809 5809 5807 5807 5807 5806 5805 5804 5802 5801 5799 5796 5794 5792 5790 5788 5785 5781 5777
5770 5774 5777 5780 5783 5785 5789 5792 5793 5795 5797 5799 5800 5801 5803 5804 5804 5806 5806 5807 5808 5807 5806 5806 5804 5805 5804 5806 5804 5803 5803 5802 5801 5800 5799 5799 5794 5793 5790 5787 5786 5783 5780 5776 5772
5759 5764 5768 5772 5775 5778 5782 5785 5787 5788 5791 5792 5795 5796 5798 5799 5801 5801 5803 5803 5804 5803 5801 5802 5801 5801 5800 5801 5800 5799 5799 5797 5797 5796 5794 5793 5790 5788 5786 5783 5780 5779 5776 5772 5767
5752 5755 5759 5763 5767 5771 5773 5777 5781 5782 5784 5786 5789 5792 5794 5795 5796 5797 5798 5800 5799 5798 5798 5797 5798 5798 5796 5796 5795 5795 5794 5793 5792 5792 5789 5787 5787 5781 5783 5780 5777 5775 5772 5768 5764
5743 5747 5750 5754 5759 5763 5766 5770 5774 5777 5777 5780 5783 5784 5787 5789 5791 5793 5794 5796 5795 5794 5793 5793 5794 5793 5792 5791 5791 5790 5790 5789 5787 5785 5784 5781 5781 5779 5778 5776 5773 5771 5768 5765 5760
5732 5736 5740 5746 5750 5753 5759 5762 5764 5769 5772 5773 5776 5778 5781 5783 5786 5788 5789 5792 5791 5789 5789 5790 5789 5789 5788 5787 5786 5786 5785 5784 5783 5779 5778 5777 5777 5775 5773 5771 5769 5767 5764 5761 5757
5721 5725 5729 5735 5738 5743 5749 5752 5755 5759 5762 5766 5769 5771 5774 5778 5780 5782 5784 5787 5786 5785 5785 5785 5787 5785 5785 5783 5783 5782 5781 5780 5779 5776 5774 5771 5773 5770 5769 5767 5765 5763 5761 5757 5753
5709 5714 5718 5723 5729 5733 5738 5741 5746 5750 5751 5757 5759 5763 5767 5771 5774 5776 5779 5782 5781 5781 5781 5781 5782 5781 5781 5779 5779 5778 5777 5776 5775 5773 5771 5768 5769 5766 5765 5763 5762 5760 5757 5754 5750
5695 5701 5706 5708 5715 5721 5726 5730 5735 5741 5740 5747 5749 5756 5760 5764 5771 5770 5773 5775 5776 5776 5778 5779 5777 5777 5776 5775 5775 5775 5773 5772 5771 5769 5768 5766 5765 5762 5760 5760 5758 5756 5754 5751 5748
5683 5686 5693 5697 5701 5705 5711 5716 5723 5730 5723 5729 5738 5744 5751 5756 5760 5763 5765 5768 5770 5771 5772 5773 5773 5773 5772 5771 5770 5769 5769 5768 5767 5766 5765 5762 5762 5760 5758 5756 5753 5751 5751 5749 5745
5668 5671 5679 5683 5690 5691 5695 5701 5708 5711 5717 5722 5727 5737 5743 5748 5752 5755 5758 5761 5763 5765 5768 5768 5767 5767 5767 5766 5765 5765 5764 5763 5763 5763 5762 5759 5758 5756 5755 5753 5751 5749 5747 5746 5743
5654 5657 5662 5668 5674 5678 5680 5686 5693 5702 5707 5713 5717 5726 5734 5739 5743 5747 5750 5752 5755 5759 5761 5761 5762 5762 5762 5761 5761 5760 5760 5759 5755 5757 5759 5756 5753 5752 5750 5749 5748 5745 5744 5742 5740
5641 5643 5649 5655 5660 5661 5664 5670 5685 5692 5698 5704 5709 5715 5724 5729 5736 5739 5742 5745 5749 5752 5753 5755 5756 5757 5757 5756 5757 5755 5755 5755 5752 5751 5752 5754 5752 5748 5746 5745 5744 5742 5740 5739 5737
5626 5630 5635 5640 5644 5646 5647 5662 5673 5680 5686 5693 5699 5705 5711 5719 5725 5730 5733 5738 5741 5744 5745 5747 5749 5750 5750 5751 5750 5750 5750 5749 5747 5745 5745 5749 5748 5743 5742 5741 5740 5738 5736 5735 5734
5607 5613 5622 5624 5628 5629 5633 5652 5661 5666 5673 5680 5686 5692 5699 5708 5714 5719 5722 5728 5732 5735 5736 5740 5742 5744 5744 5745 5744 5745 5744 5743 5742 5742 5740 5741 5745 5738 5736 5737 5736 5734 5732 5730 5731
5587 5594 5606 5608 5610 5614 5627 5641 5648 5652 5657 5664 5671 5678 5686 5694 5701 5706 5711 5716 5721 5725 5726 5731 5731 5733 5736 5736 5738 5739 5738 5737 5737 5737 5737 5735 5740 5733 5731 5732 5733 5731 5728 5727 5727
5568 5577 5585 5584 5590 5603 5615 5623 5631 5638 5644 5650 5657 5663 5671 5679 5684 5692 5698 5704 5709 5714 5717 5721 5721 5724 5727 5729 5731 5731 5732 5731 5731 5731 5733 5731 5733 5728 5725 5727 5730 5727 5724 5723 5724
5553 5558 5561 5566 5578 5591 5598 5606 5615 5625 5631 5637 5643 5648 5657 5663 5670 5678 5684 5692 5698 5703 5707 5711 5712 5715 5719 5720 5722 5723 5724 5724 5725 5726 5726 5728 5726 5722 5718 5723 5725 5724 5722 5719 5720
5533 5541 5551 5552 5562 5575 5582 5594 5603 5612 5618 5624 5630 5640 5646 5650 5656 5663 5671 5678 5686 5691 5696 5699 5701 5706 5709 5711 5711 5713 5714 5716 5721 5720 5720 5721 5722 5718 5713 5717 5719 5719 5718 5716 5716
5517 5527 5537 5545 5548 5556 5565 5580 5591 5600 5604 5612 5622 5631 5633 5638 5644 5649 5655 5663 5670 5677 5682 5686 5689 5695 5699 5702 5702 5703 5704 5709 5714 5715 5714 5714 5716 5708 5712 5713 5713 5713 5713 5712 5712
5503 5510 5517 5526 5532 5537 5551 5569 5578 5579 5591 5601 5611 5612 5618 5629 5629 5633 5640 5647 5653 5661 5667 5673 5677 5684 5688 5692 5692 5691 5698 5704 5706 5708 5707 5708 5709 5706 5706 5708 5708 5708 5708 5708 5707